Starlink 32580

operational
NORAD ID: 62075 Int'l Des: 2024-217 Owner: SPXS Country: US Constellation: starlink
LEOCIRCULAR

Starlink 32580について

説明を読み込み中...

リアルタイム位置

3D地球を読み込み中...

次回通過

高度履歴

Altitude vs Time

uPlot chart will show altitude changes over time

軌道要素

1 62075U 24217U 25353.84117808 .00016299 00000-0 56100-3 0 9993
2 62075 53.1570 192.1821 0001343 93.1373 266.9781 15.30212977 61377
Epoch: Dec 19, 2025 • Age: 6 hours

現在のステータス

高度 475.6 km
速度 7.63 km/s
衛星直下点 4.35°N, 68.05°E
打ち上げ日 Nov 24, 2024
運用期間 1 years
タイプ internet

技術仕様

分類 Payload
質量 730.00 kg
乾燥質量 700.00 kg
総質量 730.00 kg
長さ 0.30 m
直径 4.10 m
スパン 29.00 m
形状 Box + pan
製造者 SPXS
バスタイプ Starlink V2M
フェーズステータス In Orbit
所有者/国 SPXS/US

大規模コンステレーション

Loading constellations...